Cotulla, TX

11:29 AM CDT on March 30, 2017 (GMT -0500)
Cotulla-La Salle County

Weather History for KCOT - April, 2013

Change the Weather History Date:

Friday, April 26, 2013

  Actual Average Record
Temperature  
Mean Temperature 71 °F -  
Max Temperature 82 °F 85 °F 105 °F (2011)
Min Temperature 60 °F 62 °F 48 °F (2001)
Cooling Degree Days 6    
Growing Degree Days 21 (Base 50)    
Moisture  
Dew Point 61 °F    
Average Humidity 86    
Maximum Humidity 100    
Minimum Humidity 53    
Precipitation  
Precipitation 0.02 in - - ()
Sea Level Pressure  
Sea Level Pressure 30.09 in    
Wind  
Wind Speed 4 mph (ESE)    
Max Wind Speed 13 mph    
Max Gust Speed -    
Visibility 5 miles    
Events Fog , Rain    
Averages and records for this station are not official NWS values.
T = Trace of Precipitation, MM = Missing Value Source: NWS Daily Summary

Daily Weather History Graph

Daily Weather History Graph

Search for Another Location

Airport or City:

Trip Planner

Search our weather history database for the weather conditions in past years. The results will help you decide how hot, cold, wet, or windy it might be!

Date:

Astronomy

Apr. 26, 2013 Rise Set
Actual Time 7:00 AM CDT 8:09 PM CDT
Civil Twilight 6:35 AM CDT 8:33 PM CDT
Nautical Twilight 6:06 AM CDT 9:03 PM CDT
Astronomical Twilight 5:36 AM CDT 9:33 PM CDT
Moon 9:26 PM CDT (4/26) 7:33 AM CDT (4/26)
Length of Visible Light 13h 58m
Length of Day
13h 08m
Full, 99% of the Moon is Illuminated
Apr 26
Full
May 2
Last Quarter
May 9
New
May 17
First Quarter
May 24
Full

Hourly Weather History & Observations

Time (CDT) Temp. Heat Index Dew Point Humidity Pressure Visibility Wind Dir Wind Speed Gust Speed Precip Events Conditions
12:53 AM 62.1 °F - 55.9 °F 80% 30.17 in 10.0 mi SE 6.9 mph - N/A   Overcast
1:38 AM 60.8 °F - 57.2 °F 88% 30.16 in 9.0 mi SE 3.5 mph - 0.00 in Rain Light Rain
1:53 AM 60.8 °F - 57.2 °F 88% 30.16 in 6.0 mi ESE 3.5 mph - N/A Rain Light Rain
2:07 AM 60.8 °F - 59.0 °F 94% 30.15 in 4.0 mi East 3.5 mph - 0.00 in Rain Light Rain
2:21 AM 60.8 °F - 59.0 °F 94% 30.13 in 2.5 mi East 5.8 mph - 0.00 in Rain Light Rain
2:26 AM 60.8 °F - 59.0 °F 94% 30.13 in 3.0 mi East 4.6 mph - 0.00 in Rain Light Rain
2:42 AM 60.8 °F - 59.0 °F 94% 30.12 in 3.0 mi East 4.6 mph - 0.00 in   Overcast
2:51 AM 60.8 °F - 59.0 °F 94% 30.12 in 2.5 mi Calm Calm - 0.00 in   Overcast
2:53 AM 60.1 °F - 59.0 °F 96% 30.11 in 2.5 mi Calm Calm - 0.00 in   Overcast
2:58 AM 60.8 °F - 59.0 °F 94% 30.11 in 3.0 mi ESE 5.8 mph - N/A   Overcast
3:54 AM 60.1 °F - 59.0 °F 96% 30.09 in - Calm Calm - 0.01 in   Unknown
4:02 AM 60.8 °F - 59.0 °F 94% 30.10 in 2.0 mi Calm Calm - N/A   Mist
4:22 AM 60.8 °F - 60.8 °F 100% 30.10 in 2.0 mi Calm Calm - N/A   Overcast
4:33 AM 60.8 °F - 59.0 °F 94% 30.09 in 1.5 mi Calm Calm - N/A   Overcast
4:53 AM 60.1 °F - 59.0 °F 96% 30.07 in 1.5 mi ENE 4.6 mph - N/A   Overcast
5:23 AM 60.8 °F - 59.0 °F 94% 30.08 in 2.0 mi ENE 4.6 mph - N/A   Mist
5:36 AM 60.8 °F - 60.8 °F 100% 30.08 in 1.8 mi Calm Calm - N/A   Mist
5:44 AM 60.8 °F - 59.0 °F 94% 30.08 in 1.8 mi Calm Calm - N/A   Overcast
5:53 AM 60.1 °F - 59.0 °F 96% 30.07 in 1.5 mi ENE 3.5 mph - N/A   Overcast
6:26 AM 60.8 °F - 60.8 °F 100% 30.10 in 0.8 mi Calm Calm - N/A   Mist
6:48 AM 60.8 °F - 60.8 °F 100% 30.11 in 1.0 mi Calm Calm - N/A   Mist
6:53 AM 60.1 °F - 60.1 °F 100% 30.09 in 1.0 mi Calm Calm - N/A   Mist
7:08 AM 60.8 °F - 60.8 °F 100% 30.11 in 1.0 mi Calm Calm - N/A   Mist
7:31 AM 60.8 °F - 60.8 °F 100% 30.11 in 0.5 mi Calm Calm - N/A Fog Fog
7:49 AM 60.8 °F - 60.8 °F 100% 30.11 in 1.0 mi Calm Calm - 0.01 in   Overcast
7:53 AM 61.0 °F - 60.1 °F 97% 30.10 in 1.0 mi Calm Calm - 0.01 in   Overcast
8:34 AM 60.8 °F - 60.8 °F 100% 30.12 in 1.5 mi Calm Calm - N/A   Mist
8:49 AM 60.8 °F - 60.8 °F 100% 30.12 in 2.0 mi Calm Calm - N/A   Overcast
8:53 AM 61.0 °F - 61.0 °F 100% 30.11 in 1.8 mi Calm Calm - N/A   Overcast
9:21 AM - - - N/A% 30.11 in 2.5 mi East 4.6 mph - N/A   Overcast
9:28 AM - - - N/A% 30.10 in 4.0 mi East 5.8 mph - N/A   Haze
9:53 AM - - - N/A% 30.11 in 5.0 mi ESE 4.6 mph - N/A   Haze
10:06 AM - - - N/A% 30.11 in 7.0 mi SSE 4.6 mph - N/A   Overcast
10:53 AM 68.0 °F - 63.0 °F 84% 30.10 in 10.0 mi SSE 5.8 mph - N/A   Overcast
11:53 AM 70.0 °F - 63.0 °F 78% 30.11 in 10.0 mi South 5.8 mph - N/A   Overcast
12:03 PM 69.8 °F - 62.6 °F 78% 30.12 in 10.0 mi South 5.8 mph - N/A   Overcast
12:31 PM 71.6 °F - 62.6 °F 73% 30.10 in 10.0 mi South 8.1 mph - N/A   Overcast
12:53 PM 71.1 °F - 63.0 °F 75% 30.09 in 10.0 mi Variable 5.8 mph - N/A   Overcast
1:53 PM 72.0 °F - 63.0 °F 73% 30.06 in 10.0 mi ESE 6.9 mph - N/A   Overcast
2:53 PM 75.0 °F - 63.0 °F 66% 30.04 in 10.0 mi SE 5.8 mph - N/A   Overcast
3:33 PM 77.0 °F - 64.4 °F 65% 30.04 in 5.0 mi East 6.9 mph - N/A   Haze
3:53 PM 77.0 °F - 64.0 °F 64% 30.02 in - ESE 6.9 mph - N/A   Overcast
4:53 PM 80.1 °F 81.7 °F 64.0 °F 58% 29.99 in - North - - N/A   Unknown
5:53 PM 82.0 °F 83.8 °F 64.9 °F 56% 29.98 in 10.0 mi East 8.1 mph - N/A   Unknown
6:53 PM 82.9 °F 84.4 °F 64.0 °F 53% 29.97 in 10.0 mi SSE 11.5 mph - N/A   Mostly Cloudy
7:53 PM 81.0 °F 82.7 °F 64.9 °F 58% 29.97 in 10.0 mi SE 5.8 mph - N/A   Mostly Cloudy
8:53 PM 79.0 °F - 66.9 °F 66% 30.00 in 10.0 mi ESE 12.7 mph - N/A   Partly Cloudy
9:53 PM 77.0 °F - 68.0 °F 74% 30.03 in 10.0 mi ESE 9.2 mph - N/A   Partly Cloudy
10:53 PM 75.0 °F - 68.0 °F 79% 30.00 in 10.0 mi ESE 12.7 mph - N/A   Clear
11:53 PM 73.9 °F - 68.0 °F 82% 30.04 in 10.0 mi SE 5.8 mph - N/A   Partly Cloudy